| time (UTC) | temp F | wind direction | speed MPH | gust MPH | rain 1hr in | rain 24hr in | rain mn in | humidity % | barometer mb |
| 20260504151047 | 63 | 198 | 5.0 | 13.0 | 0.00 | 0.00 | 0.00 | 60 | 1005.2 |
| 20260504150555 | 63 | 167 | 3.0 | 12.0 | 0.00 | 0.00 | 0.00 | 60 | 1005.2 |
| 20260504140528 | 60 | 186 | 5.0 | 12.0 | 0.00 | 0.00 | 0.00 | 61 | 1005.5 |
| 20260504130530 | 56 | 214 | 4.0 | 11.0 | 0.00 | 0.00 | 0.00 | 63 | 1005.8 |
| 20260504120125 | 50 | 208 | 3.0 | 9.0 | 0.00 | 0.00 | 0.00 | 67 | 1006.1 |
| 20260504110535 | 47 | 162 | 2.0 | 4.0 | 0.00 | 0.00 | 0.00 | 69 | 1005.7 |
| 20260504081550 | 51 | 198 | 3.0 | 6.0 | 0.00 | 0.00 | 0.00 | 62 | 1006.8 |
| 20260504081054 | 51 | 179 | 2.0 | 6.0 | 0.00 | 0.00 | 0.00 | 62 | 1006.9 |
| 20260504080612 | 51 | 199 | 2.0 | 5.0 | 0.00 | 0.00 | 0.00 | 62 | 1006.9 |
| 20260504050522 | 52 | 188 | 3.0 | 4.0 | 0.00 | 0.00 | 0.00 | 60 | 1008.7 |
| 20260504050018 | 52 | 188 | 2.0 | 4.0 | 0.00 | 0.00 | 0.00 | 61 | 1008.7 |
| 20260504045556 | 51 | 188 | 1.0 | 4.0 | 0.00 | 0.00 | 0.00 | 61 | 1008.7 |
| 20260504045023 | 51 | 188 | 2.0 | 3.0 | 0.00 | 0.00 | 0.00 | 62 | 1008.7 |
| 20260504044524 | 51 | 188 | 1.0 | 2.0 | 0.00 | 0.00 | 0.00 | 63 | 1008.7 |
| 20260504044047 | 51 | 188 | 1.0 | 6.0 | 0.00 | 0.00 | 0.00 | 63 | 1008.9 |
| 20260504043537 | 51 | 188 | 3.0 | 6.0 | 0.00 | 0.00 | 0.00 | 63 | 1008.9 |
| 20260504043021 | 51 | 194 | 1.0 | 5.0 | 0.00 | 0.00 | 0.00 | 64 | 1008.9 |
| 20260504042529 | 51 | 194 | 1.0 | 4.0 | 0.00 | 0.00 | 0.00 | 64 | 1009.0 |
| 20260504042026 | 51 | 194 | 2.0 | 5.0 | 0.00 | 0.00 | 0.00 | 64 | 1009.0 |
| 20260504041540 | 51 | 193 | 2.0 | 5.0 | 0.00 | 0.00 | 0.00 | 64 | 1009.0 |
| 20260504041021 | 51 | 193 | 1.0 | 4.0 | 0.00 | 0.00 | 0.00 | 64 | 1009.1 |
| 20260504040542 | 50 | 193 | 2.0 | 4.0 | 0.00 | 0.00 | 0.00 | 64 | 1009.1 |
| 20260504040051 | 50 | 193 | 1.0 | 4.0 | 0.00 | 0.00 | 0.00 | 64 | 1009.1 |
| 20260504035600 | 50 | 193 | 1.0 | 3.0 | 0.00 | 0.00 | 0.00 | 64 | 1009.2 |
| 20260504035104 | 50 | 193 | 1.0 | 4.0 | 0.00 | 0.00 | 0.00 | 64 | 1009.2 |
| 20260504034540 | 50 | 193 | 2.0 | 5.0 | 0.00 | 0.00 | 0.00 | 64 | 1009.2 |
| 20260504034055 | 50 | 207 | 1.0 | 5.0 | 0.00 | 0.00 | 0.00 | 64 | 1009.5 |
| 20260504033600 | 50 | 207 | 1.0 | 2.0 | 0.00 | 0.00 | 0.00 | 64 | 1009.5 |
| 20260504032539 | 50 | 207 | 0.0 | 0.0 | 0.00 | 0.00 | 0.00 | 64 | 1009.6 |
| 20260504032023 | 50 | 207 | 0.0 | 2.0 | 0.00 | 0.00 | 0.00 | 64 | 1009.6 |
| 20260504031536 | 50 | 207 | 0.0 | 3.0 | 0.00 | 0.00 | 0.00 | 64 | 1009.6 |
| 20260504031035 | 50 | 207 | 0.0 | 1.0 | 0.00 | 0.00 | 0.00 | 64 | 1009.6 |
| 20260504030553 | 50 | 207 | 0.0 | 1.0 | 0.00 | 0.00 | 0.00 | 64 | 1009.6 |
| 20260504025525 | 50 | 207 | 1.0 | 3.0 | 0.00 | 0.00 | 0.00 | 63 | 1009.7 |
| 20260504025040 | 50 | 207 | 2.0 | 3.0 | 0.00 | 0.00 | 0.00 | 64 | 1009.7 |
| 20260504024550 | 50 | 207 | 1.0 | 3.0 | 0.00 | 0.00 | 0.00 | 64 | 1009.7 |
| 20260504023517 | 49 | 207 | 1.0 | 1.0 | 0.00 | 0.00 | 0.00 | 64 | 1009.8 |
| 20260504023041 | 49 | 207 | 0.0 | 3.0 | 0.00 | 0.00 | 0.00 | 64 | 1009.8 |
| 20260504022538 | 49 | 207 | 1.0 | 2.0 | 0.00 | 0.00 | 0.00 | 63 | 1009.8 |
| 20260504022110 | 49 | 207 | 0.0 | 2.0 | 0.00 | 0.00 | 0.00 | 63 | 1009.8 |
| 20260504021514 | 49 | 207 | 1.0 | 2.0 | 0.00 | 0.00 | 0.00 | 63 | 1009.8 |
| 20260504020519 | 50 | 207 | 1.0 | 3.0 | 0.00 | 0.00 | 0.00 | 62 | 1009.7 |
| 20260504020025 | 50 | 207 | 0.0 | 1.0 | 0.00 | 0.00 | 0.00 | 62 | 1009.7 |
| 20260504015538 | 50 | 207 | 0.0 | 3.0 | 0.00 | 0.00 | 0.00 | 62 | 1010.0 |
| 20260504015031 | 50 | 207 | 1.0 | 3.0 | 0.00 | 0.00 | 0.00 | 62 | 1010.0 |
| 20260504014543 | 50 | 207 | 0.0 | 2.0 | 0.00 | 0.00 | 0.00 | 62 | 1010.0 |
| 20260504013533 | 50 | 207 | 1.0 | 3.0 | 0.00 | 0.00 | 0.00 | 61 | 1010.0 |
| 20260504013028 | 50 | 207 | 2.0 | 4.0 | 0.00 | 0.00 | 0.00 | 61 | 1010.0 |
| 20260504012553 | 50 | 207 | 1.0 | 4.0 | 0.00 | 0.00 | 0.00 | 61 | 1009.8 |
| 20260504012045 | 51 | 207 | 0.0 | 3.0 | 0.00 | 0.00 | 0.00 | 61 | 1009.8 |
| 20260504011029 | 51 | 207 | 0.0 | 2.0 | 0.00 | 0.00 | 0.00 | 60 | 1009.7 |
| 20260504010548 | 51 | 207 | 1.0 | 2.0 | 0.00 | 0.00 | 0.00 | 60 | 1009.7 |
| 20260504005525 | 51 | 207 | 0.0 | 0.0 | 0.00 | 0.00 | 0.00 | 58 | 1009.7 |
| 20260504005048 | 51 | 207 | 0.0 | 0.0 | 0.00 | 0.00 | 0.00 | 58 | 1009.7 |
| 20260504004032 | 51 | 207 | 0.0 | 0.0 | 0.00 | 0.00 | 0.00 | 57 | 1009.7 |
| 20260504003605 | 51 | 207 | 0.0 | 0.0 | 0.00 | 0.00 | 0.00 | 57 | 1009.7 |
| 20260504003137 | 51 | 207 | 0.0 | 0.0 | 0.00 | 0.00 | 0.00 | 57 | 1009.7 |
| 20260504002613 | 52 | 207 | 0.0 | 3.0 | 0.00 | 0.00 | 0.00 | 56 | 1009.9 |
| 20260504002021 | 52 | 207 | 1.0 | 3.0 | 0.00 | 0.00 | 0.00 | 56 | 1009.9 |
| 20260504001546 | 52 | 207 | 0.0 | 4.0 | 0.00 | 0.00 | 0.00 | 56 | 1009.9 |
| 20260504000527 | 52 | 192 | 2.0 | 6.0 | 0.00 | 0.00 | 0.00 | 55 | 1010.1 |
| 20260504000113 | 52 | 193 | 2.0 | 7.0 | 0.00 | 0.00 | 0.00 | 55 | 1010.1 |
| 20260503235519 | 52 | 219 | 2.0 | 7.0 | 0.00 | 0.00 | 0.00 | 55 | 1010.7 |
| 20260503235057 | 52 | 204 | 1.0 | 11.0 | 0.00 | 0.00 | 0.00 | 54 | 1010.7 |
| 20260503234023 | 52 | 173 | 5.0 | 16.0 | 0.00 | 0.00 | 0.00 | 53 | 1010.7 |
| 20260503233540 | 53 | 230 | 5.0 | 16.0 | 0.00 | 0.00 | 0.00 | 52 | 1010.7 |
| 20260503233108 | 53 | 205 | 7.0 | 13.0 | 0.00 | 0.00 | 0.00 | 51 | 1010.7 |
| 20260503232636 | 53 | 189 | 3.0 | 17.0 | 0.00 | 0.00 | 0.00 | 50 | 1010.6 |
| 20260503232029 | 53 | 183 | 6.0 | 17.0 | 0.00 | 0.00 | 0.00 | 49 | 1010.6 |
| 20260503231022 | 54 | 196 | 5.0 | 15.0 | 0.00 | 0.00 | 0.00 | 47 | 1010.6 |
| 20260503230551 | 55 | 182 | 8.0 | 15.0 | 0.00 | 0.00 | 0.00 | 45 | 1010.6 |
| 20260503225538 | 57 | 234 | 4.0 | 15.0 | 0.00 | 0.00 | 0.00 | 41 | 1010.1 |
| 20260503224525 | 58 | 187 | 5.0 | 16.0 | 0.00 | 0.00 | 0.00 | 38 | 1010.1 |
| 20260503224054 | 58 | 179 | 5.0 | 16.0 | 0.00 | 0.00 | 0.00 | 37 | 1010.2 |
| 20260503223522 | 58 | 227 | 5.0 | 14.0 | 0.00 | 0.00 | 0.00 | 37 | 1010.2 |
| 20260503222531 | 58 | 207 | 4.0 | 15.0 | 0.00 | 0.00 | 0.00 | 37 | 1010.1 |
| 20260503221525 | 59 | 255 | 4.0 | 11.0 | 0.00 | 0.00 | 0.00 | 37 | 1010.1 |
| 20260503221036 | 59 | 196 | 5.0 | 15.0 | 0.00 | 0.00 | 0.00 | 36 | 1010.1 |
| 20260503220019 | 59 | 219 | 5.0 | 17.0 | 0.00 | 0.00 | 0.00 | 37 | 1010.1 |
| 20260503215536 | 59 | 242 | 5.0 | 9.0 | 0.00 | 0.00 | 0.00 | 37 | 1010.2 |
| 20260503215117 | 59 | 217 | 3.0 | 8.0 | 0.00 | 0.00 | 0.00 | 37 | 1010.2 |
| 20260503214612 | 59 | 242 | 4.0 | 11.0 | 0.00 | 0.00 | 0.00 | 36 | 1010.2 |
| 20260503214103 | 59 | 197 | 5.0 | 11.0 | 0.00 | 0.00 | 0.00 | 36 | 1010.3 |
| 20260503213034 | 59 | 205 | 6.0 | 14.0 | 0.00 | 0.00 | 0.00 | 37 | 1010.3 |
| 20260503212543 | 59 | 231 | 5.0 | 13.0 | 0.00 | 0.00 | 0.00 | 37 | 1010.6 |
| 20260503211527 | 59 | 188 | 6.0 | 16.0 | 0.00 | 0.00 | 0.00 | 38 | 1010.6 |
| 20260503211057 | 60 | 206 | 6.0 | 16.0 | 0.00 | 0.00 | 0.00 | 38 | 1010.6 |
| 20260503210021 | 60 | 190 | 5.0 | 12.0 | 0.00 | 0.00 | 0.00 | 38 | 1010.6 |
| 20260503205548 | 60 | 196 | 5.0 | 12.0 | 0.00 | 0.00 | 0.00 | 37 | 1010.8 |
| 20260503205048 | 60 | 188 | 4.0 | 12.0 | 0.00 | 0.00 | 0.00 | 39 | 1010.8 |
| 20260503204042 | 60 | 204 | 5.0 | 11.0 | 0.00 | 0.00 | 0.00 | 38 | 1011.1 |
| 20260503203546 | 60 | 221 | 5.0 | 14.0 | 0.00 | 0.00 | 0.00 | 38 | 1011.1 |
| 20260503202524 | 60 | 205 | 4.0 | 12.0 | 0.00 | 0.00 | 0.00 | 37 | 1011.1 |
| 20260503202044 | 60 | 216 | 5.0 | 12.0 | 0.00 | 0.00 | 0.00 | 38 | 1011.1 |
| 20260503201557 | 61 | 202 | 5.0 | 12.0 | 0.00 | 0.00 | 0.00 | 39 | 1011.1 |
| 20260503200549 | 60 | 173 | 4.0 | 17.0 | 0.00 | 0.00 | 0.00 | 37 | 1011.2 |
| 20260503200058 | 61 | 192 | 6.0 | 17.0 | 0.00 | 0.00 | 0.00 | 38 | 1011.2 |
| 20260503195040 | 60 | 225 | 6.0 | 17.0 | 0.00 | 0.00 | 0.00 | 38 | 1011.3 |
| 20260503194559 | 60 | 232 | 6.0 | 14.0 | 0.00 | 0.00 | 0.00 | 39 | 1011.3 |
| 20260503194108 | 60 | 207 | 6.0 | 14.0 | 0.00 | 0.00 | 0.00 | 39 | 1011.7 |
| 20260503193613 | 60 | 213 | 5.0 | 11.0 | 0.00 | 0.00 | 0.00 | 41 | 1011.7 |
| 20260503193019 | 60 | 176 | 5.0 | 11.0 | 0.00 | 0.00 | 0.00 | 39 | 1011.7 |
| 20260503192544 | 60 | 138 | 5.0 | 13.0 | 0.00 | 0.00 | 0.00 | 38 | 1011.8 |
| 20260503191517 | 61 | 201 | 5.0 | 13.0 | 0.00 | 0.00 | 0.00 | 40 | 1011.8 |
| 20260503190519 | 60 | 212 | 5.0 | 13.0 | 0.00 | 0.00 | 0.00 | 43 | 1012.2 |
| 20260503190023 | 60 | 207 | 4.0 | 13.0 | 0.00 | 0.00 | 0.00 | 40 | 1012.2 |
| 20260503185539 | 60 | 161 | 6.0 | 12.0 | 0.00 | 0.00 | 0.00 | 40 | 1012.3 |
| 20260503184526 | 60 | 337 | 4.0 | 14.0 | 0.00 | 0.00 | 0.00 | 39 | 1012.3 |
| 20260503184043 | 60 | 213 | 6.0 | 14.0 | 0.00 | 0.00 | 0.00 | 40 | 1012.4 |
| 20260503183542 | 60 | 201 | 4.0 | 9.0 | 0.00 | 0.00 | 0.00 | 41 | 1012.4 |
| 20260503183119 | 60 | 258 | 5.0 | 14.0 | 0.00 | 0.00 | 0.00 | 42 | 1012.4 |
| 20260503182607 | 59 | 188 | 7.0 | 17.0 | 0.00 | 0.00 | 0.00 | 39 | 1012.6 |
| 20260503181527 | 59 | 242 | 4.0 | 14.0 | 0.00 | 0.00 | 0.00 | 41 | 1012.6 |
| 20260503181052 | 59 | 187 | 6.0 | 12.0 | 0.00 | 0.00 | 0.00 | 41 | 1012.8 |
| 20260503180024 | 59 | 221 | 5.0 | 10.0 | 0.00 | 0.00 | 0.00 | 41 | 1012.8 |
| 20260503175545 | 59 | 203 | 4.0 | 9.0 | 0.00 | 0.00 | 0.00 | 41 | 1013.1 |
| 20260503175042 | 59 | 236 | 4.0 | 16.0 | 0.00 | 0.00 | 0.00 | 41 | 1013.1 |
| 20260503174048 | 59 | 161 | 4.0 | 9.0 | 0.00 | 0.00 | 0.00 | 41 | 1013.3 |
| 20260503173547 | 59 | 207 | 4.0 | 10.0 | 0.00 | 0.00 | 0.00 | 42 | 1013.3 |
| 20260503173056 | 58 | 210 | 4.0 | 10.0 | 0.00 | 0.00 | 0.00 | 42 | 1013.3 |
| 20260503172037 | 58 | 245 | 4.0 | 9.0 | 0.00 | 0.00 | 0.00 | 42 | 1013.4 |
| 20260503171559 | 58 | 250 | 4.0 | 9.0 | 0.00 | 0.00 | 0.00 | 42 | 1013.4 |
| 20260503170522 | 57 | 236 | 4.0 | 13.0 | 0.00 | 0.00 | 0.00 | 44 | 1013.7 |
| 20260503160115 | 56 | 289 | 4.0 | 10.0 | 0.00 | 0.00 | 0.00 | 48 | 1014.2 |